Home   Weather   Canada   Toronto   Past weeks
Flag for Canada

Past Weather in Toronto, Ontario, Canada — January 2014

Currently: 72 °F. Passing clouds. (Weather station: Toronto Pearson International Airport, Canada). See more current weather

January 2014 Weather in Toronto — Graph

°F

High & Low Weather Summary for January 2014

 TemperatureHumidityPressure
High45 °F (Jan 11, 3:00 pm)100% (Jan 5, 3:46 pm)30.65 "Hg (Jan 5, 3:46 pm)
Low-11 °F (Jan 3, 8:00 am)37% (Jan 30, 10:00 pm)29.18 "Hg (Jan 11, 3:00 pm)
Average17 °F72%29.95 "Hg
* Reported Jan 1 12:00 am — Jan 31 11:00 pm, Toronto. Weather by CustomWeather, © 2024

Note: Actual official high and low records may vary slightly from our data, if they occured in-between our weather recording intervals... More about our weather records

Toronto Weather History for January 1, 2014

Scroll right to see more
 ConditionsComfort  
Time TempWeatherWind HumidityBarometerVisibility
12:00 am
Wed, Jan 1
14 °FPassing clouds.14 mph67%30.25 "Hg15 mi
1:00 am14 °FPassing clouds.15 mph62%30.27 "Hg15 mi
2:00 am12 °FPassing clouds.14 mph67%30.29 "Hg15 mi
3:00 am12 °FPassing clouds.10 mph67%30.30 "Hg15 mi
4:00 am12 °FPassing clouds.12 mph67%30.32 "Hg15 mi
5:00 am12 °FPassing clouds.12 mph73%30.32 "Hg15 mi
6:00 am10 °FPartly cloudy.9 mph79%30.32 "Hg15 mi
7:00 am12 °FPassing clouds.9 mph73%30.33 "Hg15 mi
8:00 am10 °FPartly sunny.10 mph72%30.35 "Hg15 mi
9:00 am12 °FPartly sunny.9 mph73%30.39 "Hg15 mi
10:00 am14 °FScattered showers. Mostly cloudy.3 mph67%30.41 "Hg15 mi
11:00 am12 °FOvercast.13 mph73%30.43 "Hg15 mi
12:00 pm10 °FPartly sunny.13 mph72%30.43 "Hg15 mi
1:00 pm10 °FOvercast.13 mph61%30.42 "Hg15 mi
2:00 pm9 °FOvercast.13 mph66%30.42 "Hg15 mi
3:00 pm9 °FMostly cloudy.12 mph61%30.41 "Hg15 mi
4:00 pm9 °FPartly sunny.16 mph61%30.40 "Hg15 mi
5:00 pm7 °FOvercast.14 mph56%30.42 "Hg15 mi
6:00 pm5 °FPassing clouds.13 mph60%30.43 "Hg15 mi
7:00 pm5 °FPartly cloudy.9 mph60%30.43 "Hg15 mi
8:00 pm7 °FMostly cloudy.13 mph56%30.43 "Hg15 mi
9:00 pm5 °FOvercast.12 mph60%30.41 "Hg15 mi
10:00 pm5 °FMostly cloudy.16 mph51%30.40 "Hg15 mi
11:00 pm5 °FOvercast.16 mph46%30.39 "Hg15 mi
Weather by CustomWeather, © 2024

See weather overview